Probability
0 0 0 0 0 0 0 0 0 0 0 0 0 2 8 18 30 38 43 48 49 47 49 54 55 53 50 45 39 36 31 24 20 19 18 16 19 21 18 11 9 9 8 7
0 0 0 0 0 0 0 0 0 0 0 0 1 2 6 15 25 33 40 47 51 51 52 56 57 57 54 49 44 40 34 27 22 20 20 19 19 20 17 12 10 10 9 8
0 0 0 0 0 0 0 0 0 0 0 0 1 2 3 9 18 27 36 44 51 55 56 57 57 56 56 53 50 45 38 31 25 22 21 22 20 17 16 13 10 10 9 8
0 0 0 0 0 0 0 0 0 0 0 0 1 1 1 4 12 21 30 40 50 55 58 57 53 53 54 53 51 46 39 32 28 24 22 22 20 16 13 12 10 8 8 7
0 0 0 0 0 0 0 0 0 0 0 0 0 0 0 2 6 13 22 34 46 53 56 55 52 51 51 49 48 44 38 32 29 25 22 21 19 15 12 12 11 9 8 7
0 0 0 0 0 0 0 0 0 0 0 0 0 0 0 1 4 8 15 26 39 49 54 54 53 52 49 46 44 40 35 30 27 24 21 18 15 13 12 12 12 11 9 8
0 0 0 0 0 0 0 0 0 0 0 0 0 0 0 0 2 6 12 20 31 42 50 53 54 53 49 44 40 36 31 27 25 22 18 14 12 12 12 12 11 11 10 8
0 0 0 0 0 0 0 0 0 0 0 0 0 0 0 0 1 4 10 18 26 35 42 48 50 48 45 41 37 33 29 27 24 19 15 11 10 9 9 9 9 9 9 8
0 0 0 0 0 0 0 0 0 0 0 0 0 0 1 1 1 3 8 16 23 28 34 39 40 39 36 34 33 31 28 25 21 15 12 9 8 8 8 7 7 7 7 7
0 0 0 0 0 0 0 0 0 0 0 0 0 0 1 2 3 4 7 13 18 20 25 30 31 31 30 30 29 28 26 22 17 13 10 9 9 9 9 7 6 6 6 6
0 0 0 0 0 0 0 0 0 0 0 0 0 0 1 2 3 4 5 10 13 13 17 23 26 27 28 28 26 24 22 20 16 13 10 10 11 11 10 8 6 6 6 6
0 0 0 0 0 0 0 0 0 0 0 0 0 0 0 2 3 3 5 8 9 8 10 16 20 23 24 24 22 20 21 20 17 15 12 11 11 12 12 10 7 6 6 6
0 0 0 0 0 0 0 0 0 0 0 0 0 0 1 2 4 6 7 8 8 7 8 11 16 18 19 19 19 19 21 21 18 17 15 12 11 12 12 11 8 7 6 6
0 0 0 0 0 0 0 0 0 0 0 0 0 0 2 3 5 8 10 9 7 7 8 13 16 15 14 16 18 20 23 24 21 18 15 13 12 12 11 11 10 8 7 6
0 0 0 0 0 0 0 0 0 0 0 0 0 0 2 3 5 7 10 9 8 8 10 14 16 13 11 13 16 20 24 25 22 18 15 14 13 11 10 10 9 9 7 6
0 0 0 0 0 0 0 0 0 0 0 0 0 1 2 3 3 5 8 9 8 9 11 12 12 10 9 11 14 18 22 23 21 17 14 11 9 8 8 7 6 6 5 4
0 0 1 1 1 0 0 0 0 0 0 1 1 2 3 3 2 4 8 9 8 8 11 11 9 8 8 9 12 15 16 16 16 15 13 8 4 3 4 4 4 4 4 4
0 0 1 1 1 0 0 0 0 0 1 2 2 3 6 6 4 6 8 8 6 6 9 9 7 7 8 9 11 12 11 10 11 11 10 6 3 1 1 2 3 4 5 5
0 0 0 1 1 0 0 0 0 1 2 3 5 7 9 8 6 6 7 7 5 5 7 7 7 10 12 12 11 11 10 8 7 6 6 5 3 1 1 2 3 5 7 6
0 0 0 0 0 0 1 1 1 1 3 5 8 10 9 7 6 6 8 7 6 6 7 8 10 13 16 16 14 13 10 7 5 4 4 4 4 3 2 3 3 5 6 6
0 0 0 0 0 1 2 2 1 1 2 5 8 9 8 7 7 8 9 9 9 10 11 12 13 14 16 18 18 15 11 8 6 6 6 6 7 6 5 4 3 4 5 5
0 0 0 0 0 1 3 3 2 1 2 4 5 7 9 9 9 8 8 10 12 13 14 15 14 12 13 17 19 17 14 11 9 8 9 9 9 9 8 6 5 6 5 4
0 0 0 0 1 2 3 4 3 2 2 3 4 7 10 10 9 7 7 10 12 12 13 15 14 11 11 14 16 15 15 14 13 13 12 11 10 10 10 8 9 10 9 7
0 0 0 1 1 2 4 5 4 3 3 4 5 8 9 9 7 6 6 9 10 10 11 13 13 12 12 12 11 11 13 16 17 18 17 15 13 11 9 8 10 12 12 11
0 0 1 1 1 2 4 4 3 2 3 4 5 7 8 8 7 6 6 7 8 8 10 11 11 11 12 11 10 8 10 13 16 17 19 17 15 11 7 5 6 7 8 9
0 1 2 2 1 2 3 3 1 1 2 4 5 6 7 8 8 6 5 6 6 7 8 8 8 9 10 11 9 7 7 9 12 14 16 15 13 9 6 3 2 2 3 4
Wind_Speed
5 4 7 9 9 7 5 6 8 10 7 2 5 6 7 9 10 11 11 12 15 16 12 12 15 15 14 14 14 13 13 11 9 7 6 6 5 5 5 4 6 6 6 5
2 9 11 8 7 7 8 9 10 10 7 3 5 5 5 7 9 12 15 14 15 12 10 12 13 14 15 16 15 14 13 12 10 8 5 4 5 4 4 4 5 6 6 6
11 7 8 10 9 9 11 10 10 8 6 3 1 2 2 1 3 7 12 13 15 17 17 15 15 15 15 15 16 15 13 12 10 9 6 5 4 3 3 4 4 5 6 6
9 11 9 10 12 11 11 10 8 6 2 3 2 2 5 4 3 6 9 10 13 14 15 15 15 15 16 15 14 13 13 12 10 10 9 10 7 5 5 4 4 5 6 6
8 8 11 12 14 12 10 8 6 4 2 0 2 2 6 2 3 4 6 10 12 14 16 16 16 16 14 13 13 12 12 11 10 10 11 10 7 5 4 4 5 5 4 5
9 8 9 12 13 11 9 3 2 3 4 0 4 3 6 3 5 4 5 8 12 14 15 15 13 11 10 11 12 12 12 11 11 11 10 10 10 8 8 7 7 5 3 3
8 10 9 7 8 7 5 3 3 4 3 5 4 3 7 6 4 4 5 7 10 12 14 14 13 13 13 14 13 13 13 12 11 11 10 10 10 11 11 9 8 6 4 3
6 8 8 7 9 8 6 10 9 6 5 4 2 4 6 6 4 1 2 5 7 8 9 13 15 15 15 15 15 14 14 12 12 11 10 9 10 8 7 8 7 7 5 5
7 8 7 7 7 9 5 5 9 8 3 1 3 4 7 3 2 1 2 5 7 7 8 10 12 13 13 14 14 15 15 12 12 11 10 9 9 9 8 8 7 6 5 6
8 5 6 6 3 4 8 7 6 7 5 2 3 3 5 4 3 2 2 4 5 6 8 8 8 9 11 12 11 12 13 13 11 10 10 10 9 9 9 8 8 7 7 6
6 5 5 2 4 6 3 4 5 5 6 7 3 6 6 6 5 3 4 4 5 6 9 9 8 8 9 9 11 11 12 11 10 10 9 9 9 8 8 8 8 8 7 8
5 5 4 6 6 6 7 8 8 7 4 5 5 7 5 5 3 3 3 4 4 5 6 9 10 9 9 10 11 11 12 11 11 10 9 8 8 8 8 8 8 8 8 8
3 5 1 6 6 2 3 5 7 7 6 5 5 6 3 2 2 2 4 4 5 6 6 6 8 9 10 11 11 11 11 11 10 10 9 9 8 9 9 8 8 8 8 8
5 5 7 9 7 3 2 2 5 7 5 5 6 5 3 4 4 3 3 4 5 6 7 7 8 8 8 9 10 11 10 10 10 10 10 10 10 10 9 8 8 8 8 8
5 3 3 4 4 4 3 3 3 5 8 8 8 8 8 8 7 5 5 5 5 5 6 7 8 8 8 8 8 9 10 10 11 11 11 11 9 9 8 8 8 8 9 10
4 3 1 1 1 1 1 1 2 3 5 6 6 5 5 6 4 3 4 5 4 6 6 7 8 8 9 9 9 9 9 9 10 11 11 9 9 9 9 9 9 8 8 8
1 3 3 1 1 3 1 1 2 2 2 5 5 5 4 5 4 4 4 5 5 6 6 7 8 9 9 9 9 10 10 9 10 10 10 10 10 10 10 11 10 10 9 8
4 3 3 2 3 3 4 2 5 6 3 3 5 6 8 7 5 3 4 5 3 3 4 5 6 7 7 8 8 8 8 9 9 10 10 10 10 10 9 9 10 10 8 8
6 6 3 3 3 1 2 1 2 6 3 3 5 8 7 6 5 3 2 2 2 3 3 4 6 6 7 7 8 8 8 8 9 9 9 10 11 11 10 11 10 9 8 8
3 5 5 3 4 4 4 2 1 7 2 3 3 7 6 5 4 1 2 2 2 2 2 3 4 4 5 6 7 8 8 8 9 9 9 9 10 11 11 11 9 7 7 7
3 3 3 4 3 3 3 2 2 4 5 1 4 5 5 4 4 2 2 3 3 3 3 3 4 4 5 6 7 8 8 9 9 8 7 8 9 10 9 9 7 7 7 7
2 3 3 4 4 4 3 3 3 4 4 3 4 5 6 5 4 3 4 4 5 5 5 4 3 2 2 4 6 6 7 7 6 7 7 7 7 8 8 7 7 7 8 7
0 3 3 3 4 2 2 4 3 4 7 4 4 5 7 5 4 4 4 4 5 5 4 4 3 2 2 2 4 5 5 4 6 6 7 7 7 6 6 7 7 6 6 6
2 1 2 3 2 2 5 6 4 5 7 6 6 7 7 6 5 5 4 4 5 4 4 4 4 4 3 2 1 1 1 3 5 5 5 5 6 6 5 5 5 5 6 6
2 1 2 3 2 4 5 6 5 6 8 8 8 7 7 8 6 5 5 4 4 3 3 4 4 3 2 2 2 1 1 2 3 4 4 4 5 6 5 4 3 4 5 6
1 2 3 3 3 4 4 3 6 8 7 7 8 8 8 8 7 6 5 4 4 4 4 5 4 3 3 2 2 2 2 2 3 3 3 3 3 4 5 5 3 3 3 3
Wind_Direction
201 168 217 219 205 211 241 266 272 273 280 266 244 244 219 188 172 164 168 174 175 183 177 167 167 166 165 166 167 165 162 164 159 153 155 154 158 158 158 161 160 155 151 150
207 231 226 218 224 236 250 260 265 280 279 247 234 248 233 184 183 172 172 180 182 171 164 171 170 169 170 170 170 167 167 168 166 164 160 156 152 155 159 161 158 158 155 158
206 231 213 222 234 240 248 238 242 250 288 312 170 306 297 226 164 168 177 183 179 174 173 175 176 175 171 173 173 172 171 168 167 160 143 133 118 114 139 162 167 173 166 165
230 238 231 226 234 229 247 244 232 232 235 285 119 221 273 252 213 187 184 182 181 178 174 177 177 177 177 177 172 167 168 168 168 163 161 160 163 168 177 170 169 173 167 165
232 215 220 230 233 224 233 242 232 226 191 322 354 155 273 286 235 223 196 184 182 181 178 179 181 180 178 174 170 166 166 168 169 170 171 169 168 167 153 152 159 166 166 166
240 243 216 225 237 227 224 245 338 38 77 261 251 185 265 246 230 233 216 193 181 178 179 178 177 170 170 170 168 167 166 170 172 172 172 173 170 165 160 166 170 169 164 167
263 261 250 231 235 252 207 129 31 353 12 244 252 190 243 249 240 215 206 196 185 179 177 175 173 173 175 173 174 173 172 174 176 175 177 178 176 173 174 174 174 170 168 171
216 260 244 226 207 213 207 154 163 190 213 262 299 227 251 264 260 237 176 166 165 172 179 181 181 180 180 177 176 176 177 177 178 179 181 179 175 176 177 176 173 177 178 175
195 240 253 230 208 184 190 182 170 142 156 145 278 284 302 324 334 301 156 152 161 169 177 185 185 182 181 179 178 177 176 177 179 181 178 177 176 174 177 175 174 174 172 171
180 232 263 246 225 204 172 163 109 123 152 218 277 262 256 286 280 240 168 168 177 175 169 175 182 185 180 177 172 173 174 176 176 176 178 179 178 176 175 172 176 176 173 167
178 197 280 308 204 209 163 132 123 131 150 154 226 260 231 217 208 195 201 185 183 187 169 168 177 184 179 168 168 172 172 171 174 176 176 173 174 172 171 174 176 174 170 167
180 155 241 259 243 199 170 171 148 150 189 161 171 258 259 220 202 178 192 194 189 172 173 167 166 172 175 172 173 173 172 175 179 175 172 173 171 169 172 175 175 170 170 174
156 133 164 321 321 312 164 168 156 141 139 156 167 250 275 199 196 194 172 180 178 160 154 153 157 167 173 174 174 173 174 177 177 171 172 175 174 176 179 177 173 170 170 174
125 133 169 198 219 208 199 183 154 133 150 181 195 205 240 205 189 197 191 178 165 158 153 156 164 172 174 174 174 174 175 176 175 174 177 181 183 183 182 176 172 172 172 176
91 137 186 209 203 174 186 178 160 162 173 174 196 188 207 200 191 186 176 161 153 156 161 166 170 171 170 174 176 175 176 177 177 178 183 188 185 181 178 178 177 175 178 184
69 118 139 217 207 130 136 140 134 156 163 167 161 204 211 182 158 143 142 147 166 172 170 169 168 170 175 179 178 175 178 179 178 182 188 185 181 180 182 183 180 179 183 183
46 94 89 234 280 64 340 274 159 126 117 151 169 193 156 144 149 153 148 149 171 176 173 173 176 177 181 184 181 180 180 178 180 185 186 184 184 186 189 188 183 184 187 184
142 111 121 131 73 165 244 303 112 102 63 89 126 145 151 156 156 143 148 155 157 164 167 173 184 187 184 181 181 179 176 177 182 187 188 186 186 190 188 187 189 189 188 189
152 135 118 119 135 223 292 327 111 106 44 21 119 129 128 123 88 40 57 120 152 155 158 176 185 180 175 177 176 172 177 179 183 190 192 191 189 190 189 192 193 190 185 189
90 108 116 131 142 199 226 259 160 100 64 340 100 122 128 113 99 289 356 55 60 104 130 157 161 155 167 178 169 169 179 182 190 195 195 191 189 190 193 194 190 183 183 190
63 76 135 159 163 241 255 265 107 130 193 218 91 102 100 108 153 193 23 38 45 69 80 108 137 157 179 176 170 177 184 194 198 193 189 189 189 189 187 185 180 174 177 180
144 141 175 152 151 231 307 65 121 166 154 116 98 96 97 97 92 76 62 51 52 55 66 81 102 121 159 167 171 181 194 196 184 177 179 185 183 186 184 175 176 174 173 176
142 178 176 162 180 221 67 102 119 127 115 106 94 98 102 95 84 78 71 59 57 57 60 72 98 115 105 129 162 185 204 183 172 173 179 180 175 176 170 173 174 167 171 178
328 358 90 82 74 83 78 83 77 88 95 97 97 98 96 94 87 80 68 57 49 42 55 73 89 86 72 72 107 166 191 170 162 167 171 169 168 166 160 165 169 171 177 184
264 25 74 103 132 82 63 78 91 87 84 83 81 82 88 90 81 78 74 62 55 38 33 58 75 75 68 69 77 62 89 142 155 159 157 155 161 160 155 153 161 178 186 191
294 150 146 186 194 139 118 96 94 91 88 93 91 79 72 79 80 76 75 66 58 51 44 49 55 61 59 59 56 58 90 131 145 142 146 157 158 153 152 147 126 80 118 149